Martinsburg, WV

5:24 AM EDT on April 24, 2018 (GMT -0400)
Eastern W Va Regional-Shepherd

Weather History for KMRB - February, 2013

Change the Weather History Date:

Sunday, February 3, 2013

  Actual Average Record
Temperature  
Mean Temperature 29 °F 32 °F  
Max Temperature 35 °F 41 °F 65 °F (1991)
Min Temperature 22 °F 23 °F -1 °F (1949)
Degree Days  
Heating Degree Days 36 33  
Month to date heating degree days 122 99  
Since 1 July heating degree days 2898 3182  
Cooling Degree Days 0 0  
Month to date cooling degree days 0 0  
Year to date cooling degree days 0 0  
Moisture  
Dew Point 22 °F    
Average Humidity 72    
Maximum Humidity 92    
Minimum Humidity 51    
Precipitation  
Precipitation T in 0.08 in 1.10 in (1961)
Month to date precipitation 0.01 0.25  
Year to date precipitation 3.41 2.69  
Sea Level Pressure  
Sea Level Pressure 29.89 in    
Wind  
Wind Speed 6 mph (WSW)    
Max Wind Speed 23 mph    
Max Gust Speed 38 mph    
Visibility 6 miles    
Events Snow    
T = Trace of Precipitation, MM = Missing Value Source: NWS Daily Summary

Daily Weather History Graph

Daily Weather History Graph

Search for Another Location

Airport or City:

Astronomy

Feb. 03, 2013 Rise Set
Actual Time 7:17 AM EST 5:35 PM EST
Civil Twilight 6:48 AM EST 6:03 PM EST
Nautical Twilight 6:16 AM EST 6:35 PM EST
Astronomical Twilight 5:45 AM EST 7:06 PM EST
Moon 12:42 AM EST (2/3) 11:10 AM EST (2/3)
Length of Visible Light 11h 14m
Length of Day
10h 17m
Waning Gibbous, 49% of the Moon is Illuminated
Feb 3
Waning Gibbous
Feb 10
New
Feb 17
First Quarter
Feb 25
Full
Mar 4
Last Quarter

Hourly Weather History & Observations

Time (EST) Temp. Windchill Dew Point Humidity Pressure Visibility Wind Dir Wind Speed Gust Speed Precip Events Conditions
12:53 AM 25.0 °F - 19.0 °F 78% 30.00 in 10.0 mi Calm Calm - N/A   Overcast
1:53 AM 24.1 °F 19.7 °F 19.9 °F 84% 29.98 in 10.0 mi NNE 3.5 mph - N/A   Overcast
2:53 AM 24.1 °F - 19.9 °F 84% 29.96 in 10.0 mi Calm Calm - N/A   Overcast
3:53 AM 23.0 °F - 19.0 °F 85% 29.93 in 8.0 mi Calm Calm - N/A   Overcast
4:53 AM 21.9 °F - 19.0 °F 89% 29.92 in 8.0 mi Calm Calm - N/A   Overcast
5:53 AM 21.9 °F - 19.0 °F 89% 29.93 in 7.0 mi Calm Calm - N/A   Overcast
7:53 AM 24.1 °F - 19.9 °F 84% 29.94 in 4.0 mi Calm Calm - 0.00 in   Overcast
8:53 AM 26.1 °F - 21.0 °F 81% 29.94 in 1.2 mi Calm Calm - 0.00 in Snow Light Snow
9:07 AM 24.8 °F - 21.2 °F 86% 29.91 in 2.5 mi Calm Calm - 0.00 in Snow Light Snow
9:20 AM 26.6 °F - 21.2 °F 80% 29.91 in 3.0 mi Calm Calm - 0.00 in Snow Light Snow
9:42 AM 26.6 °F - 21.2 °F 80% 29.91 in 1.8 mi Calm Calm - 0.00 in Snow Light Snow
9:53 AM 27.0 °F - 21.9 °F 81% 29.93 in 1.5 mi Calm Calm - 0.00 in Snow Light Snow
10:23 AM 26.6 °F - 21.2 °F 80% 29.91 in 1.5 mi Calm Calm - 0.00 in Snow Light Snow
10:33 AM 26.6 °F - 21.2 °F 80% 29.91 in 2.5 mi Calm Calm - 0.00 in Snow Light Snow
10:42 AM 28.4 °F - 23.0 °F 80% 29.90 in 3.0 mi Calm Calm - 0.00 in Snow Light Snow
10:49 AM 28.4 °F - 23.0 °F 80% 29.90 in 2.5 mi Calm Calm - 0.00 in Snow Light Snow
10:53 AM 28.0 °F - 23.0 °F 81% 29.92 in 2.5 mi Calm Calm - 0.00 in Snow Light Snow
10:59 AM 28.4 °F - 23.0 °F 80% 29.90 in 4.0 mi Calm Calm - 0.00 in Snow Light Snow
11:53 AM 30.0 °F - 23.0 °F 75% 29.89 in 8.0 mi Calm Calm - 0.00 in   Overcast
12:27 PM 30.2 °F 24.3 °F 24.8 °F 80% 29.85 in 2.0 mi South 5.8 mph - 0.00 in Snow Light Snow
12:45 PM 30.2 °F 26.7 °F 24.8 °F 80% 29.84 in 7.0 mi SSW 3.5 mph - 0.00 in   Overcast
12:53 PM 30.9 °F 26.2 °F 25.0 °F 79% 29.86 in 5.0 mi South 4.6 mph - 0.00 in Snow Light Snow
1:04 PM 30.2 °F 26.7 °F 24.8 °F 80% 29.83 in 1.8 mi South 3.5 mph - 0.00 in Snow Light Snow
1:15 PM 32.0 °F 28.7 °F 24.8 °F 75% 29.83 in 3.0 mi SSW 3.5 mph - 0.00 in Snow Light Snow
1:23 PM 32.0 °F - 24.8 °F 75% 29.82 in 9.0 mi Calm Calm - 0.00 in   Overcast
1:53 PM 33.1 °F 28.7 °F 24.1 °F 70% 29.83 in 10.0 mi SW 4.6 mph - 0.00 in   Overcast
2:53 PM 34.0 °F 28.0 °F 25.0 °F 70% 29.82 in 10.0 mi South 6.9 mph - 0.00 in   Overcast
3:53 PM 34.0 °F 28.8 °F 21.9 °F 61% 29.82 in 10.0 mi SSE 5.8 mph - N/A   Overcast
4:53 PM 32.0 °F 28.7 °F 26.1 °F 79% 29.83 in 10.0 mi South 3.5 mph - N/A   Overcast
5:22 PM 32.0 °F 25.6 °F 26.6 °F 80% 29.81 in 1.8 mi South 6.9 mph - 0.00 in Snow Light Snow
5:38 PM 32.0 °F 27.5 °F 28.4 °F 87% 29.82 in 1.8 mi SW 4.6 mph - 0.00 in Snow Light Snow
5:50 PM 30.2 °F 25.4 °F 26.6 °F 86% 29.82 in 8.0 mi WSW 4.6 mph - 0.00 in   Overcast
5:53 PM 30.9 °F 26.2 °F 26.1 °F 82% 29.84 in 9.0 mi West 4.6 mph - 0.00 in   Overcast
6:53 PM 32.0 °F 23.6 °F 23.0 °F 69% 29.85 in 10.0 mi West 10.4 mph - N/A   Overcast
7:53 PM 33.1 °F 22.2 °F 18.0 °F 54% 29.88 in 10.0 mi West 17.3 mph - N/A   Overcast
8:53 PM 30.0 °F 19.5 °F 21.0 °F 69% 29.92 in 10.0 mi WSW 13.8 mph - 0.00 in   Overcast
9:20 PM 28.4 °F 17.5 °F 21.2 °F 74% 29.92 in 2.5 mi West 13.8 mph 24.2 mph 0.00 in Snow Light Snow
9:31 PM 28.4 °F 16.6 °F 21.2 °F 74% 29.92 in 1.5 mi WNW 16.1 mph 26.5 mph 0.00 in Snow Light Snow
9:53 PM 28.0 °F 15.7 °F 21.0 °F 75% 29.95 in 1.8 mi WNW 17.3 mph 23.0 mph 0.00 in Snow Light Snow
9:57 PM 28.4 °F 18.0 °F 19.4 °F 69% 29.93 in 3.0 mi West 12.7 mph 23.0 mph 0.00 in Snow Light Snow
10:17 PM 28.4 °F 16.6 °F 15.8 °F 59% 29.93 in 10.0 mi West 16.1 mph 25.3 mph 0.00 in   Overcast
10:53 PM 28.0 °F 15.7 °F 12.9 °F 53% 29.96 in 10.0 mi West 17.3 mph 24.2 mph 0.00 in   Overcast
11:53 PM 27.0 °F 12.2 °F 12.0 °F 53% 29.99 in 10.0 mi West 24.2 mph 29.9 mph N/A   Overcast